Change the Weather History Date:

Thursday, June 6, 2013

  Actual Average Record
Temperature  
Mean Temperature 73 °F 73 °F  
Max Temperature 80 °F 84 °F 100 °F (1936)
Min Temperature 65 °F 61 °F 44 °F (1889)
Degree Days  
Heating Degree Days 0 0  
Month to date heating degree days 0 3  
Since 1 June heating degree days 0 3  
Since 1 July heating degree days 3875 4046  
Cooling Degree Days 8 8  
Month to date cooling degree days 38 44  
Year to date cooling degree days 251 197  
Since 1 June cooling degree days 38 44  
Growing Degree Days 24 (Base 50)    
Moisture  
Dew Point 67 °F    
Average Humidity 78    
Maximum Humidity 93    
Minimum Humidity 62    
Precipitation  
Precipitation 0.19 in 0.15 in 3.28 in (1981)
Month to date precipitation 1.03 0.92  
Year to date precipitation 25.56 22.85  
Snow  
Snow 0.00 in 0.00 in 0.00 in ()
Month to date snowfall 0.0 0.0  
Since 1 June snowfall 0.0 0.0  
Since 1 July snowfall 3.8 9.1  
Snow Depth 0.00 in    
Sea Level Pressure  
Sea Level Pressure 29.81 in    
Wind  
Wind Speed 3 mph (WSW)    
Max Wind Speed 15 mph    
Max Gust Speed 21 mph    
Visibility 10 miles    
Events Rain , Thunderstorm    
T = Trace of Precipitation, MM = Missing Value Source: NWS Daily Summary

Daily Weather History Graph

Daily Weather History Graph

Search for Another Location

Airport or City:

Trip Planner

Search our weather history database for the weather conditions in past years. The results will help you decide how hot, cold, wet, or windy it might be!

Date:

Astronomy

Jun. 06, 2013 Rise Set
Actual Time 5:26 AM CDT 8:02 PM CDT
Civil Twilight 4:55 AM CDT 8:33 PM CDT
Nautical Twilight 4:17 AM CDT 9:11 PM CDT
Astronomical Twilight 3:35 AM CDT 9:53 PM CDT
Moon 4:05 AM CDT (6/6) 6:25 PM CDT (6/6)
Length of Visible Light 15h 37m
Length of Day
14h 36m
Waning Crescent, 3% of the Moon is Illuminated
Jun 6
Waning Crescent
Jun 8
New
Jun 16
First Quarter
Jun 23
Full
Jun 29
Last Quarter

Hourly Weather History & Observations

Time (CDT) Temp. Heat Index Dew Point Humidity Pressure Visibility Wind Dir Wind Speed Gust Speed Precip Events Conditions
12:53 AM 73.0 °F - 66.9 °F 81% 29.83 in 10.0 mi Calm Calm - N/A   Mostly Cloudy
1:53 AM 73.0 °F - 66.9 °F 81% 29.81 in 10.0 mi South 4.6 mph - N/A   Overcast
2:53 AM 72.0 °F - 68.0 °F 87% 29.82 in 7.0 mi SSW 9.2 mph - 0.04 in Rain Rain
3:53 AM 71.1 °F - 68.0 °F 90% 29.81 in 10.0 mi South 8.1 mph - 0.03 in   Mostly Cloudy
4:06 AM 71.6 °F - 68.0 °F 88% 29.82 in 10.0 mi South 8.1 mph - 0.00 in Rain , Thunderstorm Light Rain
4:18 AM 71.6 °F - 68.0 °F 88% 29.82 in 10.0 mi South 6.9 mph - 0.00 in Thunderstorm Overcast
4:27 AM 71.6 °F - 66.2 °F 83% 29.82 in 6.0 mi SW 8.1 mph - 0.03 in Rain Rain
4:53 AM 70.0 °F - 66.9 °F 90% 29.77 in 10.0 mi SSE 6.9 mph - 0.07 in Rain Light Rain
5:00 AM 69.8 °F - 66.2 °F 88% 29.80 in 10.0 mi SSW 6.9 mph - 0.00 in   Mostly Cloudy
5:08 AM 69.8 °F - 66.2 °F 88% 29.80 in 10.0 mi SSW 13.8 mph 18.4 mph 0.00 in   Mostly Cloudy
5:20 AM 69.8 °F - 64.4 °F 83% 29.80 in 10.0 mi WSW 13.8 mph - 0.00 in   Mostly Cloudy
5:53 AM 68.0 °F - 64.0 °F 87% 29.79 in 10.0 mi WSW 6.9 mph - 0.00 in   Mostly Cloudy
6:05 AM 68.0 °F - 62.6 °F 83% 29.81 in 10.0 mi SW 9.2 mph - N/A   Scattered Clouds
6:53 AM 68.0 °F - 64.0 °F 87% 29.80 in 10.0 mi WSW 5.8 mph - 0.00 in   Mostly Cloudy
7:53 AM 70.0 °F - 64.9 °F 84% 29.82 in 10.0 mi WSW 5.8 mph - 0.00 in Rain Light Rain
8:53 AM 70.0 °F - 66.9 °F 90% 29.82 in 8.0 mi West 4.6 mph - 0.04 in Rain Light Rain
9:18 AM 71.6 °F - 66.2 °F 83% 29.84 in 10.0 mi West 4.6 mph - 0.01 in   Mostly Cloudy
9:25 AM 71.6 °F - 66.2 °F 83% 29.84 in 10.0 mi West 5.8 mph - 0.01 in   Mostly Cloudy
9:33 AM 71.6 °F - 66.2 °F 83% 29.84 in 10.0 mi WSW 3.5 mph - 0.01 in   Mostly Cloudy
9:43 AM 71.6 °F - 66.2 °F 83% 29.84 in 10.0 mi West 3.5 mph - 0.01 in   Overcast
9:53 AM 73.0 °F - 66.9 °F 81% 29.82 in 10.0 mi SSW 4.6 mph - 0.01 in   Overcast
10:02 AM 73.4 °F - 66.2 °F 78% 29.84 in 10.0 mi WSW 5.8 mph - N/A   Overcast
10:13 AM 73.4 °F - 66.2 °F 78% 29.84 in 10.0 mi Variable 3.5 mph - N/A   Overcast
10:26 AM 73.4 °F - 66.2 °F 78% 29.84 in 10.0 mi West 4.6 mph - N/A   Overcast
10:51 AM 73.4 °F - 66.2 °F 78% 29.83 in 10.0 mi Calm Calm - N/A   Overcast
10:53 AM 73.0 °F - 66.9 °F 81% 29.82 in 10.0 mi Calm Calm - N/A   Overcast
11:53 AM 73.9 °F - 68.0 °F 82% 29.81 in 10.0 mi Calm Calm - N/A   Overcast
12:53 PM 73.0 °F - 66.9 °F 81% 29.81 in 10.0 mi Calm Calm - N/A   Overcast
1:00 PM 73.4 °F - 68.0 °F 83% 29.83 in 10.0 mi NNE 3.5 mph - N/A   Overcast
1:07 PM 73.4 °F - 68.0 °F 83% 29.83 in 10.0 mi Calm Calm - N/A   Overcast
1:19 PM 73.4 °F - 68.0 °F 83% 29.83 in 8.0 mi Calm Calm - 0.00 in Rain Light Rain
1:44 PM 75.2 °F - 69.8 °F 83% 29.82 in 10.0 mi NE 3.5 mph - 0.00 in   Overcast
1:53 PM 75.0 °F - 69.1 °F 82% 29.81 in 10.0 mi NNE 3.5 mph - 0.00 in   Overcast
2:19 PM 75.2 °F - 68.0 °F 78% 29.82 in 10.0 mi Calm Calm - N/A   Overcast
2:53 PM 77.0 °F - 68.0 °F 74% 29.80 in 10.0 mi Variable 4.6 mph - N/A   Overcast
3:53 PM 78.1 °F - 66.9 °F 68% 29.78 in 10.0 mi Calm Calm - N/A   Overcast
4:15 PM 80.6 °F 83.2 °F 68.0 °F 65% 29.79 in 10.0 mi North 4.6 mph - N/A   Overcast
4:53 PM 80.1 °F 82.3 °F 66.9 °F 64% 29.77 in 10.0 mi NW 3.5 mph - N/A   Mostly Cloudy
5:53 PM 80.1 °F 82.1 °F 66.0 °F 62% 29.76 in 10.0 mi NNW 4.6 mph - N/A   Mostly Cloudy
6:53 PM 79.0 °F - 66.9 °F 66% 29.76 in 10.0 mi Calm Calm - N/A   Partly Cloudy
7:53 PM 75.9 °F - 66.0 °F 71% 29.77 in 10.0 mi Calm Calm - N/A   Partly Cloudy
8:53 PM 73.0 °F - 66.0 °F 79% 29.78 in 10.0 mi NNW 3.5 mph - N/A   Partly Cloudy
9:53 PM 73.0 °F - 66.9 °F 81% 29.80 in 10.0 mi Calm Calm - N/A   Clear
10:53 PM 70.0 °F - 66.0 °F 87% 29.79 in 10.0 mi Calm Calm - N/A   Clear
11:53 PM 66.9 °F - 64.0 °F 90% 29.79 in 9.0 mi Calm Calm - N/A   Clear